Simultaneous Nadir Overpasses (SNOs) Predictions

Prediction of SNOs between METOP-A and TERRA Satellite Orbit:

Table of predicted SNOs for the next 14.0 days since TLE Epoch: 6/22/2012
Index Date (METOP-A) Time (METOP-A) METOP-A Lat,Lon Date (TERRA) Time (TERRA) TERRA Lat,Lon Distance(km) Time Diff (sec)
1 06/23/2012 11:30:45 81.31, 54.58 06/23/2012 11:31:01 81.31, 54.43 2.51 16
2 06/23/2012 12:21:25 -81.32,-137.60 06/23/2012 12:20:27 -81.32,-137.65 1.09 58
3 06/26/2012 07:05:07 81.30, 120.63 06/26/2012 07:05:18 81.30, 120.74 2.02 11
4 06/26/2012 07:55:46 -81.32, -71.12 06/26/2012 07:54:44 -81.32, -71.32 3.20 62
5 06/29/2012 02:39:26 81.31,-172.59 06/29/2012 02:39:33 81.31,-172.65 0.95 7
6 06/29/2012 03:30:07 -81.31, -5.09 06/29/2012 03:29:00 -81.31, -5.06 0.73 67
7 07/01/2012 22:13:47
